Showing default

KUIPER-00086, 64832

Orbit data source: Space-Track

KUIPER-00086, 64832 is a payload satellite owned by Kuiper Systems (US) in LEO that was launched on Wed, 16 Jul 2025 UTC via an FALCON 9 launch vehicle from the Air Force Eastern Test Range (AFETR). Payload-class satellites include a variety of spacecraft equipped with specific instruments for various scientific and technological missions. These include communications satellites like Starlink; space stations such as the ISS; scientific satellites like the Hubble; Earth observation satellites from companies like Planet Labs, Umbra, and HawkEye 360; GPS; miniature CubeSats for education and research; and military/defense satellites.

Loading next visibility...
Identifier
64832, 2025-151S
Orbit
LEO
Country
Flag of USUS
Related business
Manufacturer
Kuiper Systems
Mission
Operational Commercial Communications
Bus & Motor
KUIPER, Unknown motor
Mass
~490 kg wet, ~490 kg dry
Launch date (UTC)
2025-07-16 (11 months ago)
Launch vehicle
FALCON 9
Launch site
Air Force Eastern Test Range (AFETR)
Object type
Payload
Rocket body
Debris
Shape & HBR
Box + 2 Pan, 3.4 m
Radar Cross Section
2.326 m², Large (>1 m²)

Expand to show TLE details & history
Last TLE update: 8 hours ago

TLE from 8 hours ago
0 KUIPER-00086
1 64832U 25151S   26166.84982974  .00002170  00000-0  31359-3 0  9993
2 64832  51.8998 224.0451 0000527  96.0271 264.0751 14.79929006 49872
Epoch: 2026-06-15T20:23Z
TLE epoch observation values (Epoch: 2026-06-15T20:23:45.289Z)
Latitude
-0.00005°
Longitude
13.97605°
Altitude
630.333 km
Speed
7.544 km/s
True Right ascension
14h 56m 10s
True Declination
0° 00' 00"
Sunlit
Object was in full shadow at epoch
Visualization orbit readout
Latitude
Unknown
Longitude
Unknown
Altitude
Unknown
Speed
Unknown
Apparent Right ascension
Unknown
Apparent Declination
Unknown
Sunlit
N/A
Visualization observer readout
Local Sidereal Time
14:52:18
Azimuth
Unknown
Elevation
Unknown
Doppler factor
Unknown
Orbital elements
Apogee altitude
630.369 km
Perigee altitude
629.63 km
Semi-major axis
7,008.136 km
Eccentricity
0.00005
Inclination
51.8998°
RAAN
224.0451°
Arg. of periapsis
96.0271°
True anomaly
264.06909°
Mean anomaly
264.0751°
Eccentric anomaly
264.0721°
Mean motion
3.69947 °/min
Orbital period
97.31 mins
BSTAR
0.00031359
Loading maneuver chart data...
Computing Atmospheric mass density...
Loading historical data...
Loading historical data...
Loading historical data...
Loading historical data...
Loading historical data...
Loading historical data...
Loading historical data...

Documentation

Showing up to 5 results
|